Location: Hawks Ness
(60.2333°N, 1.1667°W)
Time: 13:16:40
(UTC+00:00)

Cosmos 1867 - Pass Details

Date: 22 October 2019
Orbit: 776 x 800 km, 65.0° (Epoch: 14 November)

Event Time Altitude Azimuth Distance (km) Brightness Sun altitude
Exits shadow 04:53:35 19° 302° (WNW) 1,851 5.0 -16.4°
Maximum altitude 04:57:36 66° 22° (NNE) 874 3.9 -15.9°
Drops below altitude 10° 05:03:03 10° 105° (ESE) 2,375 7.2 -15.2°
Sets 05:05:29 0° 108° (ESE) 3,301 8.1 -14.9°
